Alexandria, MN

5:00 AM CDT on August 18, 2017 (GMT -0500)
Chandler

Weather History for KAXN - November, 2012

Change the Weather History Date:

Wednesday, November 14, 2012

  Actual Average Record
Temperature  
Mean Temperature 36 °F -  
Max Temperature 45 °F 36 °F 69 °F (1953)
Min Temperature 26 °F 23 °F -8 °F (1959)
Degree Days  
Heating Degree Days 30    
Moisture  
Dew Point 28 °F    
Average Humidity 75    
Maximum Humidity 89    
Minimum Humidity 58    
Precipitation  
Precipitation 0.00 in - - ()
Sea Level Pressure  
Sea Level Pressure 30.21 in    
Wind  
Wind Speed 6 mph (SSW)    
Max Wind Speed 10 mph    
Max Gust Speed -    
Visibility 10 miles    
Events      
Averages and records for this station are not official NWS values.
T = Trace of Precipitation, MM = Missing Value Source: NWS Daily Summary

Daily Weather History Graph

Daily Weather History Graph

Search for Another Location

Airport or City:

Trip Planner

Search our weather history database for the weather conditions in past years. The results will help you decide how hot, cold, wet, or windy it might be!

Date:

Astronomy

Nov. 14, 2012 Rise Set
Actual Time 7:20 AM CST 4:50 PM CST
Civil Twilight 6:48 AM CST 5:22 PM CST
Nautical Twilight 6:12 AM CST 5:59 PM CST
Astronomical Twilight 5:37 AM CST 6:34 PM CST
Moon 8:14 AM CST (11/14) 5:36 PM CST (11/14)
Length of Visible Light 10h 34m
Length of Day
9h 29m
New Moon, 1% of the Moon is Illuminated
Nov 14
New Moon
Nov 20
First Quarter
Nov 28
Full
Dec 6
Last Quarter
Dec 13
New

Hourly Weather History & Observations

Time (CST) Temp. Windchill Dew Point Humidity Pressure Visibility Wind Dir Wind Speed Gust Speed Precip Events Conditions
12:53 AM 30.0 °F 25.2 °F 26.1 °F 85% 30.27 in 10.0 mi South 4.6 mph - N/A   Overcast
1:53 AM 30.0 °F 25.2 °F 26.1 °F 85% 30.27 in 10.0 mi SSW 4.6 mph - N/A   Mostly Cloudy
2:53 AM 32.0 °F 26.4 °F 27.0 °F 82% 30.27 in 10.0 mi SW 5.8 mph - N/A   Mostly Cloudy
3:53 AM 32.0 °F 28.7 °F 26.1 °F 79% 30.26 in 10.0 mi SW 3.5 mph - N/A   Overcast
4:53 AM 32.0 °F - 26.1 °F 79% 30.26 in 10.0 mi Calm Calm - N/A   Mostly Cloudy
5:53 AM 26.1 °F 20.5 °F 23.0 °F 88% 30.26 in 10.0 mi South 4.6 mph - N/A   Clear
6:53 AM 28.0 °F 24.2 °F 24.1 °F 85% 30.25 in 10.0 mi South 3.5 mph - N/A   Clear
7:53 AM 27.0 °F - 24.1 °F 89% 30.26 in 10.0 mi Calm Calm - N/A   Clear
8:53 AM 32.0 °F 25.6 °F 27.0 °F 82% 30.26 in 10.0 mi SW 6.9 mph - N/A   Clear
9:53 AM 34.0 °F 27.2 °F 27.0 °F 75% 30.26 in 10.0 mi SW 8.1 mph - N/A   Clear
10:53 AM 37.9 °F 31.5 °F 28.9 °F 70% 30.25 in 10.0 mi SSW 9.2 mph - N/A   Clear
11:53 AM 41.0 °F 34.7 °F 30.0 °F 65% 30.24 in 10.0 mi SSW 10.4 mph - N/A   Clear
12:53 PM 43.0 °F 37.7 °F 32.0 °F 65% 30.21 in 10.0 mi South 9.2 mph - N/A   Clear
1:53 PM 44.1 °F 40.8 °F 32.0 °F 63% 30.20 in 10.0 mi South 5.8 mph - N/A   Clear
2:53 PM 45.0 °F 40.1 °F 30.9 °F 58% 30.18 in 10.0 mi South 9.2 mph - N/A   Clear
3:53 PM 44.1 °F 40.8 °F 32.0 °F 63% 30.18 in 10.0 mi South 5.8 mph - N/A   Clear
4:53 PM 39.0 °F 34.8 °F 28.9 °F 67% 30.17 in 10.0 mi South 5.8 mph - N/A   Clear
5:53 PM 36.0 °F 30.3 °F 28.9 °F 76% 30.17 in 10.0 mi SSE 6.9 mph - N/A   Clear
6:53 PM 36.0 °F 29.6 °F 30.0 °F 79% 30.17 in 10.0 mi SSE 8.1 mph - N/A   Clear
7:53 PM 36.0 °F 29.6 °F 30.0 °F 79% 30.16 in 10.0 mi South 8.1 mph - N/A   Clear
8:53 PM 36.0 °F 30.3 °F 30.0 °F 79% 30.16 in 10.0 mi South 6.9 mph - N/A   Overcast
9:53 PM 39.0 °F 34.0 °F 30.0 °F 70% 30.14 in 10.0 mi South 6.9 mph - N/A   Clear
10:53 PM 39.9 °F 33.4 °F 30.9 °F 70% 30.13 in 10.0 mi SSW 10.4 mph - N/A   Mostly Cloudy
11:53 PM 39.9 °F 33.9 °F 30.9 °F 70% 30.13 in 10.0 mi SSW 9.2 mph - N/A   Mostly Cloudy